Saal Messungen

Zurück zum Überblick

Zeitpunkt Temperatur Temperatur Kabelsensor Luftfeuchte
03.05.2026 03:21:15 20,8 C 40,3 C 49,0%
03.05.2026 03:14:11 20,9 C 39,0 C 49,0%
03.05.2026 03:10:33 20,9 C 41,1 C 49,0%
03.05.2026 03:06:55 20,9 C 43,2 C 49,0%
03.05.2026 02:59:53 20,9 C 44,0 C 49,0%
03.05.2026 02:52:50 20,8 C 44,0 C 49,0%
03.05.2026 02:50:48 20,8 C 46,1 C 49,0%
03.05.2026 02:45:39 20,7 C 48,3 C 49,0%
03.05.2026 02:40:48 20,6 C 46,2 C 49,0%
03.05.2026 02:37:09 20,6 C 44,1 C 49,0%
03.05.2026 02:34:43 20,6 C 42,0 C 49,0%
03.05.2026 02:33:47 20,6 C 39,9 C 49,0%
03.05.2026 02:31:46 20,6 C 37,8 C 49,0%
03.05.2026 02:24:43 20,7 C 37,9 C 49,0%
03.05.2026 02:17:40 20,7 C 39,1 C 49,0%
03.05.2026 02:11:55 20,7 C 41,2 C 49,0%
03.05.2026 02:04:52 20,8 C 41,8 C 49,0%
03.05.2026 01:57:49 20,7 C 42,5 C 49,0%
03.05.2026 01:54:58 20,6 C 44,6 C 49,0%
03.05.2026 01:53:16 20,6 C 46,7 C 49,0%
03.05.2026 01:49:19 20,5 C 48,8 C 49,0%
03.05.2026 01:42:16 20,5 C 46,8 C 49,0%
03.05.2026 01:40:03 20,5 C 44,7 C 49,0%
03.05.2026 01:36:01 20,5 C 42,6 C 49,0%
03.05.2026 01:35:06 20,5 C 40,5 C 49,0%
03.05.2026 01:30:22 20,5 C 38,4 C 49,0%
03.05.2026 01:26:09 20,5 C 40,5 C 49,0%
03.05.2026 01:19:07 20,5 C 41,3 C 49,0%
03.05.2026 01:14:15 20,5 C 39,2 C 49,0%
03.05.2026 01:08:13 20,5 C 41,3 C 49,0%
03.05.2026 01:04:29 20,5 C 43,4 C 49,0%
03.05.2026 01:00:27 20,5 C 45,5 C 49,0%
03.05.2026 00:53:24 20,5 C 44,0 C 49,0%
03.05.2026 00:50:53 20,4 C 46,1 C 50,0%
03.05.2026 00:48:02 20,3 C 48,2 C 50,0%
03.05.2026 00:41:01 20,2 C 46,5 C 50,0%
03.05.2026 00:38:04 20,2 C 44,4 C 50,0%
03.05.2026 00:33:50 20,2 C 42,3 C 50,0%
03.05.2026 00:32:42 20,2 C 40,1 C 50,0%
03.05.2026 00:31:47 20,2 C 38,0 C 50,0%
03.05.2026 00:25:21 20,3 C 35,9 C 49,0%
03.05.2026 00:21:13 20,4 C 33,8 C 49,0%
03.05.2026 00:14:08 20,5 C 35,8 C 49,0%
03.05.2026 00:09:12 20,5 C 37,9 C 49,0%
03.05.2026 00:05:45 20,5 C 40,0 C 49,0%
03.05.2026 00:02:26 20,6 C 42,1 C 49,0%